| time (UTC) | temp F | wind direction | speed MPH | gust MPH | rain 1hr in | rain 24hr in | rain mn in | humidity % | barometer mb |
| 20260504050503 | 49 | 183 | 7.0 | 9.0 | 0.00 | 0.00 | 0.00 | 55 | 1018.0 |
| 20260504050004 | 49 | 219 | 5.0 | 9.0 | 0.00 | 0.00 | 0.00 | 55 | 1018.0 |
| 20260504045003 | 48 | 221 | 4.0 | 9.0 | 0.00 | 0.00 | 0.00 | 54 | 1017.9 |
| 20260504044504 | 48 | 189 | 6.0 | 9.0 | 0.00 | 0.00 | 0.00 | 55 | 1017.9 |
| 20260504044003 | 48 | 196 | 4.0 | 9.0 | 0.00 | 0.00 | 0.00 | 55 | 1017.9 |
| 20260504043502 | 47 | 184 | 6.0 | 9.0 | 0.00 | 0.00 | 0.00 | 56 | 1017.8 |
| 20260504043005 | 47 | 202 | 4.0 | 9.0 | 0.00 | 0.00 | 0.00 | 57 | 1017.7 |
| 20260504042503 | 47 | 188 | 6.0 | 9.0 | 0.00 | 0.00 | 0.00 | 56 | 1017.6 |
| 20260504042003 | 47 | 191 | 5.0 | 12.0 | 0.00 | 0.00 | 0.00 | 57 | 1017.8 |
| 20260504041003 | 46 | 194 | 5.0 | 12.0 | 0.00 | 0.00 | 0.00 | 61 | 1017.7 |
| 20260504040502 | 45 | 197 | 6.0 | 7.0 | 0.00 | 0.00 | 0.00 | 63 | 1018.0 |
| 20260504040011 | 44 | 181 | 4.0 | 9.0 | 0.00 | 0.00 | 0.00 | 65 | 1017.8 |
| 20260504035503 | 42 | 200 | 4.0 | 9.0 | 0.00 | 0.00 | 0.00 | 69 | 1017.9 |
| 20260504034503 | 36 | 219 | 3.0 | 5.0 | 0.00 | 0.00 | 0.00 | 84 | 1018.0 |
| 20260504034002 | 36 | 220 | 1.0 | 5.0 | 0.00 | 0.00 | 0.00 | 84 | 1017.9 |
| 20260504033004 | 35 | 221 | 1.0 | 5.0 | 0.00 | 0.00 | 0.00 | 83 | 1018.0 |
| 20260504032503 | 35 | 221 | 1.0 | 5.0 | 0.00 | 0.00 | 0.00 | 83 | 1017.9 |
| 20260504032002 | 36 | 220 | 1.0 | 2.0 | 0.00 | 0.00 | 0.00 | 83 | 1017.9 |
| 20260504031503 | 35 | 220 | 1.0 | 3.0 | 0.00 | 0.00 | 0.00 | 84 | 1018.1 |
| 20260504031003 | 35 | 221 | 2.0 | 3.0 | 0.00 | 0.00 | 0.00 | 85 | 1018.0 |
| 20260504030504 | 35 | 220 | 2.0 | 3.0 | 0.00 | 0.00 | 0.00 | 84 | 1018.0 |
| 20260504030003 | 35 | 221 | 1.0 | 3.0 | 0.00 | 0.00 | 0.00 | 83 | 1018.0 |
| 20260504025503 | 35 | 221 | 1.0 | 3.0 | 0.00 | 0.00 | 0.00 | 83 | 1017.9 |
| 20260504025003 | 35 | 220 | 3.0 | 3.0 | 0.00 | 0.00 | 0.00 | 84 | 1018.0 |
| 20260504024003 | 36 | 221 | 2.0 | 3.0 | 0.00 | 0.00 | 0.00 | 82 | 1018.0 |
| 20260504023504 | 36 | 0 | 0.0 | 2.0 | 0.00 | 0.00 | 0.00 | 83 | 1018.0 |
| 20260504023003 | 36 | 220 | 1.0 | 2.0 | 0.00 | 0.00 | 0.00 | 83 | 1018.0 |
| 20260504022002 | 36 | 0 | 0.0 | 1.0 | 0.00 | 0.00 | 0.00 | 81 | 1018.0 |
| 20260504021503 | 36 | 0 | 0.0 | 1.0 | 0.00 | 0.00 | 0.00 | 81 | 1017.9 |
| 20260504021003 | 36 | 0 | 0.0 | 2.0 | 0.00 | 0.00 | 0.00 | 81 | 1017.8 |
| 20260504020004 | 37 | 220 | 0.0 | 1.0 | 0.00 | 0.00 | 0.00 | 79 | 1017.7 |
| 20260504015003 | 38 | 0 | 0.0 | 3.0 | 0.00 | 0.00 | 0.00 | 78 | 1017.8 |
| 20260504014002 | 40 | 220 | 2.0 | 2.0 | 0.00 | 0.00 | 0.00 | 75 | 1017.7 |
| 20260504013503 | 40 | 0 | 0.0 | 2.0 | 0.00 | 0.00 | 0.00 | 74 | 1017.6 |
| 20260504013004 | 40 | 0 | 0.0 | 2.0 | 0.00 | 0.00 | 0.00 | 74 | 1017.6 |
| 20260504012503 | 40 | 221 | 0.0 | 1.0 | 0.00 | 0.00 | 0.00 | 73 | 1017.5 |
| 20260504012004 | 41 | 220 | 1.0 | 2.0 | 0.00 | 0.00 | 0.00 | 73 | 1017.4 |
| 20260504011503 | 41 | 220 | 0.0 | 2.0 | 0.00 | 0.00 | 0.00 | 73 | 1017.4 |
| 20260504011003 | 42 | 0 | 0.0 | 1.0 | 0.00 | 0.00 | 0.00 | 71 | 1017.4 |
| 20260504010503 | 42 | 0 | 0.0 | 0.0 | 0.00 | 0.00 | 0.00 | 70 | 1017.3 |
| 20260504010003 | 43 | 0 | 0.0 | 0.0 | 0.00 | 0.00 | 0.00 | 67 | 1017.3 |
| 20260504005503 | 44 | 0 | 0.0 | 0.0 | 0.00 | 0.00 | 0.00 | 66 | 1017.2 |
| 20260504004504 | 45 | 0 | 0.0 | 1.0 | 0.00 | 0.00 | 0.00 | 62 | 1017.2 |
| 20260504004003 | 46 | 0 | 0.0 | 0.0 | 0.00 | 0.00 | 0.00 | 61 | 1017.2 |
| 20260504003503 | 46 | 0 | 0.0 | 2.0 | 0.00 | 0.00 | 0.00 | 59 | 1017.1 |
| 20260504003003 | 47 | 220 | 0.0 | 2.0 | 0.00 | 0.00 | 0.00 | 58 | 1017.0 |
| 20260504002502 | 48 | 0 | 0.0 | 2.0 | 0.00 | 0.00 | 0.00 | 56 | 1017.0 |
| 20260504002003 | 50 | 221 | 1.0 | 3.0 | 0.00 | 0.00 | 0.00 | 54 | 1016.9 |
| 20260504001003 | 52 | 220 | 3.0 | 5.0 | 0.00 | 0.00 | 0.00 | 44 | 1017.0 |
| 20260504000005 | 54 | 221 | 1.0 | 3.0 | 0.00 | 0.00 | 0.00 | 40 | 1017.2 |
| 20260503235503 | 54 | 220 | 2.0 | 3.0 | 0.00 | 0.00 | 0.00 | 41 | 1017.1 |
| 20260503235003 | 55 | 221 | 1.0 | 6.0 | 0.00 | 0.00 | 0.00 | 35 | 1017.1 |
| 20260503234503 | 56 | 233 | 4.0 | 6.0 | 0.00 | 0.00 | 0.00 | 35 | 1017.0 |
| 20260503234003 | 56 | 262 | 1.0 | 5.0 | 0.00 | 0.00 | 0.00 | 35 | 1017.1 |
| 20260503233503 | 56 | 262 | 1.0 | 12.0 | 0.00 | 0.00 | 0.00 | 34 | 1017.0 |
| 20260503233004 | 56 | 262 | 4.0 | 12.0 | 0.00 | 0.00 | 0.00 | 33 | 1016.9 |
| 20260503232503 | 56 | 241 | 3.0 | 9.0 | 0.00 | 0.00 | 0.00 | 33 | 1017.0 |
| 20260503232002 | 57 | 273 | 3.0 | 9.0 | 0.00 | 0.00 | 0.00 | 33 | 1016.9 |
| 20260503231503 | 57 | 224 | 5.0 | 10.0 | 0.00 | 0.00 | 0.00 | 33 | 1016.8 |
| 20260503231003 | 57 | 213 | 6.0 | 10.0 | 0.00 | 0.00 | 0.00 | 32 | 1016.8 |
| 20260503230503 | 57 | 228 | 6.0 | 12.0 | 0.00 | 0.00 | 0.00 | 32 | 1016.7 |
| 20260503230004 | 57 | 267 | 8.0 | 12.0 | 0.00 | 0.00 | 0.00 | 32 | 1016.8 |
| 20260503225503 | 58 | 223 | 7.0 | 13.0 | 0.00 | 0.00 | 0.00 | 34 | 1016.8 |
| 20260503225003 | 57 | 270 | 6.0 | 13.0 | 0.00 | 0.00 | 0.00 | 32 | 1016.8 |
| 20260503224504 | 57 | 219 | 7.0 | 13.0 | 0.00 | 0.00 | 0.00 | 32 | 1016.8 |
| 20260503224002 | 58 | 210 | 7.0 | 14.0 | 0.00 | 0.00 | 0.00 | 31 | 1016.9 |
| 20260503223503 | 58 | 253 | 8.0 | 14.0 | 0.00 | 0.00 | 0.00 | 32 | 1017.0 |
| 20260503223003 | 58 | 280 | 6.0 | 12.0 | 0.00 | 0.00 | 0.00 | 31 | 1016.9 |
| 20260503222503 | 58 | 254 | 4.0 | 12.0 | 0.00 | 0.00 | 0.00 | 34 | 1017.0 |
| 20260503222003 | 57 | 271 | 3.0 | 14.0 | 0.00 | 0.00 | 0.00 | 31 | 1016.9 |
| 20260503221504 | 58 | 241 | 8.0 | 14.0 | 0.00 | 0.00 | 0.00 | 33 | 1017.1 |
| 20260503221003 | 58 | 307 | 4.0 | 14.0 | 0.00 | 0.00 | 0.00 | 34 | 1017.1 |
| 20260503220503 | 57 | 318 | 9.0 | 14.0 | 0.00 | 0.00 | 0.00 | 33 | 1017.1 |
| 20260503220004 | 58 | 256 | 7.0 | 14.0 | 0.00 | 0.00 | 0.00 | 36 | 1017.1 |
| 20260503214504 | 58 | 264 | 6.0 | 10.0 | 0.00 | 0.00 | 0.00 | 34 | 1017.1 |
| 20260503214003 | 58 | 275 | 6.0 | 14.0 | 0.00 | 0.00 | 0.00 | 35 | 1017.2 |
| 20260503213503 | 57 | 252 | 2.0 | 16.0 | 0.00 | 0.00 | 0.00 | 34 | 1017.3 |
| 20260503213003 | 57 | 273 | 12.0 | 16.0 | 0.00 | 0.00 | 0.00 | 36 | 1017.3 |
| 20260503212503 | 57 | 328 | 3.0 | 13.0 | 0.00 | 0.00 | 0.00 | 34 | 1017.2 |
| 20260503212003 | 57 | 247 | 7.0 | 15.0 | 0.00 | 0.00 | 0.00 | 35 | 1017.3 |
| 20260503211504 | 58 | 285 | 6.0 | 15.0 | 0.00 | 0.00 | 0.00 | 35 | 1017.3 |
| 20260503211003 | 57 | 269 | 6.0 | 15.0 | 0.00 | 0.00 | 0.00 | 36 | 1017.2 |
| 20260503210503 | 57 | 309 | 8.0 | 16.0 | 0.00 | 0.00 | 0.00 | 36 | 1017.2 |
| 20260503205003 | 57 | 308 | 11.0 | 15.0 | 0.00 | 0.00 | 0.00 | 37 | 1017.3 |
| 20260503204503 | 56 | 353 | 9.0 | 15.0 | 0.00 | 0.00 | 0.00 | 35 | 1017.4 |
| 20260503204003 | 56 | 259 | 10.0 | 16.0 | 0.00 | 0.00 | 0.00 | 37 | 1017.5 |
| 20260503203503 | 57 | 272 | 5.0 | 17.0 | 0.00 | 0.00 | 0.00 | 35 | 1017.6 |
| 20260503203003 | 57 | 249 | 11.0 | 17.0 | 0.00 | 0.00 | 0.00 | 35 | 1017.6 |
| 20260503202503 | 57 | 295 | 5.0 | 16.0 | 0.00 | 0.00 | 0.00 | 36 | 1017.6 |
| 20260503202003 | 56 | 298 | 6.0 | 17.0 | 0.00 | 0.00 | 0.00 | 40 | 1017.5 |
| 20260503201504 | 56 | 293 | 11.0 | 17.0 | 0.00 | 0.00 | 0.00 | 34 | 1017.7 |
| 20260503200503 | 56 | 337 | 6.0 | 18.0 | 0.00 | 0.00 | 0.00 | 37 | 1017.9 |
| 20260503195503 | 56 | 202 | 15.0 | 21.0 | 0.00 | 0.00 | 0.00 | 36 | 1018.0 |
| 20260503195003 | 55 | 312 | 8.0 | 20.0 | 0.00 | 0.00 | 0.00 | 38 | 1018.1 |
| 20260503194505 | 55 | 322 | 10.0 | 20.0 | 0.00 | 0.00 | 0.00 | 36 | 1018.3 |
| 20260503194004 | 55 | 273 | 5.0 | 18.0 | 0.00 | 0.00 | 0.00 | 38 | 1018.2 |
| 20260503193503 | 54 | 324 | 7.0 | 20.0 | 0.00 | 0.00 | 0.00 | 40 | 1018.2 |
| 20260503193004 | 54 | 329 | 10.0 | 20.0 | 0.00 | 0.00 | 0.00 | 37 | 1018.3 |
| 20260503192503 | 54 | 263 | 12.0 | 20.0 | 0.00 | 0.00 | 0.00 | 38 | 1018.2 |
| 20260503192002 | 54 | 266 | 7.0 | 24.0 | 0.00 | 0.00 | 0.00 | 36 | 1018.3 |
| 20260503191503 | 54 | 274 | 10.0 | 24.0 | 0.00 | 0.00 | 0.00 | 37 | 1018.5 |
| 20260503191003 | 54 | 348 | 5.0 | 17.0 | 0.00 | 0.00 | 0.00 | 36 | 1018.3 |
| 20260503190503 | 54 | 333 | 12.0 | 16.0 | 0.00 | 0.00 | 0.00 | 39 | 1018.4 |
| 20260503190004 | 53 | 233 | 3.0 | 15.0 | 0.00 | 0.00 | 0.00 | 43 | 1018.4 |
| 20260503184504 | 53 | 296 | 9.0 | 15.0 | 0.00 | 0.00 | 0.00 | 42 | 1018.7 |
| 20260503184003 | 52 | 316 | 12.0 | 18.0 | 0.00 | 0.00 | 0.00 | 44 | 1018.9 |
| 20260503183503 | 52 | 324 | 5.0 | 18.0 | 0.00 | 0.00 | 0.00 | 42 | 1019.1 |
| 20260503183003 | 52 | 300 | 10.0 | 16.0 | 0.00 | 0.00 | 0.00 | 43 | 1019.1 |
| 20260503182503 | 52 | 318 | 6.0 | 16.0 | 0.00 | 0.00 | 0.00 | 42 | 1019.0 |
| 20260503182005 | 52 | 301 | 5.0 | 20.0 | 0.00 | 0.00 | 0.00 | 43 | 1019.0 |
| 20260503181003 | 52 | 333 | 10.0 | 18.0 | 0.00 | 0.00 | 0.00 | 43 | 1019.2 |
| 20260503180503 | 52 | 271 | 10.0 | 18.0 | 0.00 | 0.00 | 0.00 | 46 | 1019.2 |
| 20260503180004 | 51 | 280 | 12.0 | 16.0 | 0.00 | 0.00 | 0.00 | 47 | 1019.2 |
| 20260503174504 | 51 | 274 | 9.0 | 22.0 | 0.00 | 0.00 | 0.00 | 49 | 1019.1 |
| 20260503174003 | 51 | 278 | 7.0 | 22.0 | 0.00 | 0.00 | 0.00 | 50 | 1019.2 |
| 20260503173503 | 50 | 272 | 7.0 | 15.0 | 0.00 | 0.00 | 0.00 | 49 | 1019.3 |
| 20260503172504 | 50 | 214 | 7.0 | 21.0 | 0.00 | 0.00 | 0.00 | 53 | 1019.3 |
| 20260503172003 | 50 | 250 | 14.0 | 21.0 | 0.00 | 0.00 | 0.00 | 48 | 1019.4 |
| 20260503171503 | 50 | 277 | 6.0 | 16.0 | 0.00 | 0.00 | 0.00 | 50 | 1019.5 |
| 20260503171003 | 50 | 262 | 11.0 | 16.0 | 0.00 | 0.00 | 0.00 | 52 | 1019.5 |
| 20260503170502 | 49 | 218 | 6.0 | 17.0 | 0.00 | 0.00 | 0.00 | 48 | 1019.6 |
| 20260503151003 | 45 | 301 | 5.0 | 13.0 | 0.00 | 0.00 | 0.00 | 55 | 1020.1 |
| 20260503131004 | 40 | 289 | 6.0 | 15.0 | 0.00 | 0.00 | 0.00 | 65 | 1019.8 |
| 20260503130503 | 40 | 354 | 8.0 | 16.0 | 0.00 | 0.00 | 0.00 | 63 | 1019.8 |
| 20260503110503 | 34 | 262 | 0.0 | 5.0 | 0.00 | 0.00 | 0.00 | 74 | 1018.4 |
| 20260503081504 | 35 | 292 | 2.0 | 5.0 | 0.00 | 0.00 | 0.00 | 74 | 1016.6 |
| 20260503081003 | 35 | 314 | 2.0 | 6.0 | 0.00 | 0.00 | 0.00 | 74 | 1016.6 |
| 20260503080503 | 36 | 317 | 3.0 | 6.0 | 0.00 | 0.00 | 0.00 | 74 | 1016.6 |